Theta_e
309 309 307 307 307 307 309 309 306 304 304 303 303 303 303 303 302 299 292 294 295 290 290 291 291 287 287 289 285 288 289 292 290 285 285 284 282 285 285 287 284 283 282 282 285 285 284 298 301 295 297 299 297 296
308 306 306 306 306 307 308 307 305 304 303 303 303 302 303 302 302 302 292 294 298 292 289 293 294 296 294 293 287 290 292 292 292 288 288 287 284 286 286 281 289 282 285 281 286 286 294 300 299 301 300 296 296 296
306 306 306 306 306 307 308 306 305 303 303 302 302 302 302 302 302 301 296 297 296 293 291 288 290 295 298 297 298 291 295 296 294 295 290 288 283 287 283 284 284 288 290 287 289 289 290 295 298 299 299 297 298 298
305 305 305 306 306 307 307 305 304 303 302 302 302 302 303 303 303 301 295 297 296 292 286 287 297 295 300 300 297 298 299 299 296 294 290 288 285 291 286 286 285 285 286 286 289 291 292 292 295 296 297 297 297 297
305 305 305 306 307 308 306 305 303 302 302 301 302 303 303 303 302 300 295 294 298 293 288 289 294 295 297 304 302 301 300 296 295 291 290 288 291 291 291 288 285 285 284 285 282 291 289 291 295 297 295 295 296 295
305 305 305 306 307 307 305 303 302 302 302 302 303 303 302 302 301 294 289 298 296 298 292 287 292 293 296 298 300 301 300 297 296 293 292 293 296 292 287 284 288 290 291 293 288 293 293 295 296 297 296 296 296 295
304 305 305 307 307 305 303 302 302 301 302 302 302 302 302 302 298 291 288 299 303 301 293 289 284 291 295 301 302 297 299 297 295 294 292 292 291 290 287 282 287 291 293 292 292 293 291 294 292 296 296 296 297 297
305 305 306 307 306 304 302 301 301 301 301 302 302 302 302 302 301 296 296 301 302 297 297 288 285 287 294 295 295 297 295 295 292 290 293 291 287 289 283 286 290 292 293 293 293 294 295 295 295 295 296 295 294 292
304 306 306 306 304 302 300 300 300 301 301 301 303 304 299 297 293 296 305 304 301 298 291 291 286 280 293 296 295 294 297 291 295 289 285 284 284 281 285 289 290 293 292 292 294 294 295 294 294 294 294 293 292 292
304 306 306 304 302 300 300 300 300 300 301 303 297 295 292 301 310 305 296 296 295 296 296 289 292 285 291 290 293 291 295 290 286 291 291 286 284 289 291 292 294 294 295 295 291 290 292 292 293 294 293 293 292 291
305 306 304 302 301 300 299 299 300 300 297 289 286 288 293 299 295 291 292 292 294 291 291 292 290 286 293 288 289 295 291 290 283 287 287 284 283 288 292 293 296 296 295 295 296 296 296 295 293 292 292 292 292 291
305 304 303 301 300 299 299 299 299 293 290 290 290 292 291 292 290 290 287 290 292 288 294 291 291 290 290 298 293 294 290 290 282 288 285 280 287 291 292 293 295 296 296 296 296 295 295 295 293 292 291 290 290 290
304 303 301 300 299 299 299 298 299 300 297 295 293 290 288 288 285 284 282 287 289 291 290 290 288 289 291 297 293 291 287 286 291 284 283 286 290 291 293 294 294 295 296 296 296 296 297 293 293 292 291 291 291 290
303 302 301 300 299 299 298 298 300 296 291 287 286 275 283 281 285 288 288 288 291 290 290 289 288 288 292 293 290 288 290 292 282 280 281 286 289 291 293 293 293 292 294 294 294 294 294 293 292 293 292 292 292 291
302 301 300 299 300 299 298 299 299 292 290 286 286 276 283 288 291 294 293 290 291 291 291 289 289 289 290 290 291 291 288 283 284 282 284 291 292 293 293 293 293 295 292 291 292 293 293 293 292 292 293 293 292 291
301 299 297 298 298 299 299 296 294 293 290 289 287 284 286 285 284 288 289 290 292 292 290 290 287 285 285 287 288 287 286 282 285 286 291 294 293 294 294 295 297 293 292 292 292 293 293 293 293 293 294 293 293 292
298 293 300 299 301 300 299 292 294 289 287 288 284 287 286 285 285 286 290 292 294 291 287 287 284 285 287 284 285 287 286 289 290 292 293 294 293 294 295 295 295 294 292 292 292 292 292 293 294 293 291 292 292 291
293 297 300 300 297 296 293 292 290 289 286 286 283 286 287 289 288 289 291 293 293 291 290 288 289 284 283 283 281 287 292 295 295 296 296 296 296 297 295 293 294 293 293 292 292 292 292 292 291 290 290 291 291 291
296 297 300 300 296 294 292 292 290 284 287 287 288 289 290 290 291 292 293 294 295 294 292 289 286 287 285 289 289 290 294 295 295 297 299 300 301 298 296 296 294 293 293 292 291 291 291 291 290 290 290 292 290 290
298 299 299 299 297 290 288 288 292 286 284 287 289 288 289 290 291 293 293 294 293 291 289 288 288 289 289 292 294 294 296 297 297 296 297 299 297 296 295 295 293 292 292 291 291 291 290 289 290 290 291 290 289 288
296 295 297 295 291 290 289 288 289 288 288 287 289 288 289 291 291 291 290 294 292 288 288 290 291 292 294 296 296 296 297 298 297 298 298 298 298 296 296 295 294 293 292 292 291 291 291 290 289 290 290 290 290 290
295 299 292 294 291 291 288 289 287 291 288 288 288 288 287 287 289 290 292 290 289 289 291 292 293 293 294 296 298 298 299 300 301 300 298 299 298 295 295 295 294 293 293 293 293 292 291 290 290 290 290 289 289 289
299 296 294 293 289 289 285 290 286 287 284 287 288 286 287 288 290 293 287 289 290 293 295 296 296 296 295 298 301 300 300 300 300 301 301 302 302 300 297 295 296 294 293 294 296 296 294 291 291 290 290 289 288 288
299 293 289 289 288 283 291 289 288 288 288 286 287 286 288 288 291 288 286 287 290 293 294 296 299 295 294 296 295 298 298 301 301 301 303 302 301 301 299 298 297 297 296 296 295 295 295 295 292 292 291 289 289 289
285 282 286 283 289 287 286 287 287 287 286 287 287 287 287 290 287 285 285 287 289 290 295 298 296 293 293 292 293 295 298 302 301 300 302 303 302 302 300 299 298 299 299 295 294 294 293 294 295 293 292 291 289 289
282 284 282 286 284 284 286 286 287 287 287 288 288 289 288 287 287 285 288 289 290 291 293 296 297 294 292 294 294 296 297 302 304 301 302 303 303 302 300 299 297 298 300 297 296 294 293 294 293 291 291 290 287 290
280 282 286 289 288 289 287 290 290 288 289 289 290 289 287 284 286 288 290 292 294 296 296 296 296 296 293 293 300 303 304 305 304 304 305 304 304 306 304 301 299 299 300 297 296 296 295 294 293 292 291 290 290 291
286 286 283 286 287 288 287 287 288 287 290 293 293 289 288 288 287 291 293 298 299 298 298 300 302 301 298 299 303 304 305 305 306 307 306 305 304 304 304 303 303 293 300 300 297 297 297 296 295 294 293 291 291 290
284 287 287 285 286 287 288 288 289 292 297 293 289 290 292 294 293 295 297 296 295 295 297 297 299 303 301 303 304 304 304 302 301 299 299 297 297 300 302 301 299 300 299 297 289 295 298 296 296 296 295 294 294 293
285 287 285 287 287 286 290 292 291 297 297 296 297 295 293 295 298 299 298 298 296 294 294 297 298 300 300 300 299 299 300 302 302 300 296 295 297 299 299 298 297 297 296 297 295 292 286 291 290 293 293 293 292 291
289 286 285 286 288 292 294 296 299 298 296 294 295 293 290 295 298 300 298 297 298 299 299 298 297 298 298 298 297 296 294 295 295 296 296 299 301 301 300 298 297 296 295 294 293 293 292 292 293 293 294 293 293 292
287 287 287 288 288 293 297 295 293 293 292 292 291 293 292 294 291 295 298 298 298 297 293 297 297 295 294 294 295 293 289 292 292 292 293 294 296 298 299 300 299 297 295 294 293 293 294 293 292 293 293 294 293 293
286 287 288 288 287 290 293 291 290 290 291 290 289 290 293 292 289 291 296 297 298 298 297 297 297 296 294 294 293 291 289 292 288 284 283 284 285 285 289 296 299 298 296 294 293 292 292 293 291 290 289 288 287 286
Wind_Speed
13 12 15 15 15 14 14 10 7 6 7 8 9 9 10 10 11 5 4 3 1 4 10 7 3 5 6 5 4 8 8 0 3 6 4 4 3 4 5 4 7 6 7 5 5 6 5 16 9 4 7 13 17 14
10 14 14 14 14 13 12 8 7 6 7 9 9 9 10 10 10 8 2 2 3 5 8 6 16 20 16 20 4 3 5 6 3 3 3 3 3 4 6 5 6 4 3 4 7 5 11 8 8 13 14 19 17 22
12 13 13 13 14 13 9 7 7 7 8 8 9 10 10 11 11 7 3 3 2 4 6 3 6 7 7 13 12 3 2 2 2 1 1 2 3 3 4 4 4 6 5 2 1 10 16 14 13 15 18 19 17 20
11 13 13 13 15 13 8 7 6 8 8 9 10 11 12 12 12 10 4 3 0 4 4 8 4 7 12 6 12 16 4 2 1 1 1 2 3 1 3 3 3 3 9 8 3 5 7 16 11 16 20 20 21 19
11 12 13 13 14 12 8 7 7 8 8 9 11 12 12 12 13 9 5 5 7 2 4 7 13 3 9 3 3 5 2 2 1 1 1 2 2 3 2 1 3 5 4 4 3 7 10 7 9 16 22 20 20 22
11 12 12 12 13 7 8 7 7 9 10 11 12 12 12 11 11 3 3 2 4 4 3 5 5 5 5 4 2 3 0 1 1 1 2 2 2 3 3 3 7 11 10 6 2 11 12 11 13 14 22 19 20 21
11 13 12 10 8 8 8 8 7 9 12 12 13 13 12 10 3 3 4 0 6 1 3 5 6 6 5 3 1 1 0 1 0 1 1 2 3 4 2 4 11 12 5 10 8 8 11 11 11 15 21 21 23 20
14 12 10 9 10 10 7 7 8 10 13 14 15 15 13 10 8 5 5 16 6 3 3 2 6 6 2 2 1 1 1 1 2 1 2 3 3 3 3 7 7 9 8 6 10 9 11 14 15 16 17 20 22 19
15 11 9 11 10 8 6 7 8 11 15 16 17 14 1 2 3 4 1 6 4 2 2 2 2 5 4 1 1 2 1 1 1 2 2 3 4 4 6 8 7 7 6 11 15 14 14 15 15 15 17 17 19 16
11 9 10 10 9 7 5 6 9 13 16 13 3 1 1 2 2 6 3 1 2 3 2 4 3 5 1 2 2 2 2 1 2 1 3 3 2 2 5 6 6 9 9 10 13 14 15 15 13 14 15 13 14 13
9 10 12 11 8 6 4 5 9 14 6 4 3 1 3 8 3 1 2 3 3 3 4 4 5 4 2 3 2 1 2 1 2 2 2 2 2 3 5 6 7 10 12 11 10 12 11 12 13 13 14 14 14 15
11 11 11 9 7 5 4 3 7 4 1 3 2 3 3 2 1 2 3 3 4 4 4 3 5 6 4 2 2 1 0 2 1 1 2 2 2 3 4 7 9 9 12 13 12 12 9 11 12 13 14 13 13 13
13 13 9 8 7 6 4 4 4 5 3 1 1 1 1 1 1 4 4 3 3 3 3 2 5 2 3 2 2 2 2 0 1 3 2 1 5 5 7 8 10 11 12 11 10 7 6 13 12 13 13 11 12 12
14 12 10 8 8 6 5 4 5 2 2 3 3 4 4 4 5 5 5 5 5 3 4 2 3 1 2 1 2 1 1 2 1 1 2 2 7 7 8 8 9 6 5 7 6 5 12 12 12 12 11 11 13 12
11 9 8 7 11 7 5 4 2 1 1 2 1 5 6 5 4 3 3 1 3 2 1 3 2 1 3 2 2 1 1 0 1 3 3 7 11 10 10 8 6 3 3 9 9 11 12 12 12 12 11 10 11 11
10 5 4 6 6 8 6 0 1 1 1 2 4 4 3 2 4 3 2 3 2 1 1 2 2 3 3 0 2 1 1 3 2 3 3 11 12 10 9 7 4 5 7 8 8 10 11 11 11 11 11 11 10 11
10 3 5 8 8 8 4 2 2 3 3 4 4 4 3 4 6 4 3 4 1 3 1 1 2 3 2 2 0 0 2 2 3 4 2 9 12 13 10 8 7 7 7 7 8 8 9 9 11 11 10 9 10 9
1 3 12 10 5 3 1 1 1 3 6 5 3 4 4 4 3 4 4 3 3 2 2 3 1 2 2 1 3 2 1 2 4 5 4 4 4 4 8 9 8 8 7 7 7 6 7 8 8 6 8 8 8 8
5 5 9 6 3 2 2 4 3 3 5 4 4 4 4 4 4 3 3 2 2 2 3 2 1 2 3 3 2 2 5 5 5 3 4 5 6 8 11 10 10 9 9 8 9 7 6 7 6 6 6 6 6 5
7 6 4 4 3 1 2 3 3 3 4 4 2 3 3 4 2 2 2 1 2 3 1 2 4 3 3 3 3 4 6 6 4 3 2 2 1 9 12 11 8 8 6 6 5 6 5 4 3 5 5 7 7 5
4 3 6 4 1 1 2 3 3 4 4 2 3 2 4 1 1 2 1 1 2 2 2 3 3 3 2 1 3 4 6 8 5 3 3 2 3 6 7 7 9 8 7 6 6 5 7 6 5 5 6 6 6 6
3 8 3 3 2 3 4 4 4 3 2 3 3 3 3 1 2 3 2 2 2 3 4 3 2 2 2 3 3 5 7 9 7 5 4 3 5 5 6 7 8 6 6 6 7 7 5 4 5 5 5 5 6 5
5 3 2 3 3 4 6 3 2 3 2 3 1 2 2 2 2 1 2 2 3 3 3 3 3 2 3 3 5 4 6 10 9 6 4 2 1 3 5 6 7 7 6 4 6 7 6 7 7 6 5 5 5 4
3 2 3 4 5 4 2 3 3 3 3 2 2 2 2 2 1 2 1 2 3 2 2 4 3 3 3 3 2 3 3 5 7 6 4 3 3 2 5 6 6 6 7 5 5 5 6 8 9 7 7 7 8 8
3 4 3 3 2 3 4 3 4 2 4 4 2 1 1 1 2 1 1 3 1 1 1 3 3 3 4 2 1 3 4 5 7 9 7 7 5 3 3 3 4 4 4 5 5 5 5 7 9 10 10 9 10 10
4 4 6 4 3 4 4 2 3 5 3 2 1 1 3 3 2 2 2 3 2 3 3 4 4 3 2 4 4 4 5 4 5 4 5 7 8 8 8 5 4 3 4 4 6 8 9 8 9 11 10 10 10 11
2 4 4 4 2 3 3 3 3 2 4 4 3 2 3 2 3 3 2 2 3 2 1 3 4 3 3 1 2 3 4 4 4 4 3 3 5 8 7 7 7 5 5 6 6 9 12 10 9 10 9 6 9 10
4 2 4 2 3 2 3 2 3 3 1 2 3 2 3 3 3 3 3 1 3 3 4 3 3 4 4 3 2 4 3 6 6 4 4 3 3 5 7 4 4 6 5 6 7 6 7 9 9 9 8 10 9 7
3 3 1 3 3 3 5 4 3 2 3 3 4 3 3 1 1 2 0 2 2 4 3 3 3 4 5 4 3 3 2 4 6 5 1 1 2 2 3 4 5 4 4 6 7 10 13 10 10 10 12 11 9 7
4 4 2 3 3 3 3 3 3 2 2 3 4 1 4 4 4 3 3 3 3 3 2 3 3 4 4 5 4 2 2 2 3 4 5 5 5 3 4 5 5 4 4 5 5 3 6 5 5 4 5 4 4 5
1 3 2 2 2 3 4 2 2 3 2 4 4 7 4 2 3 5 5 3 3 3 5 5 5 4 5 4 4 4 2 3 4 3 3 2 1 1 4 5 4 5 5 5 6 5 5 4 5 6 7 8 8 7
1 3 2 1 3 3 2 3 3 3 3 3 2 3 3 4 3 4 5 3 4 4 4 4 5 4 4 4 3 4 4 1 3 3 5 3 2 1 1 2 4 5 5 6 5 6 6 8 6 7 7 8 7 8
2 1 2 2 1 3 3 3 3 3 2 1 1 2 1 3 3 2 3 4 3 4 3 3 3 3 5 4 3 1 2 1 3 3 3 3 4 4 3 3 4 5 7 6 6 6 7 6 5 5 5 5 5 6
Wind_Direction
285 295 306 307 310 311 308 232 233 244 275 291 303 315 320 328 328 342 274 218 249 271 284 256 222 216 286 269 262 307 321 339 336 5 2 353 309 336 305 331 345 347 324 347 356 25 37 342 338 41 116 98 111 110
284 297 299 304 307 301 298 227 230 242 271 285 298 308 312 321 321 328 287 251 217 242 257 263 264 257 244 249 254 287 280 314 345 339 354 316 323 312 310 345 4 15 18 307 4 17 323 17 69 74 108 104 107 101
283 289 295 299 301 294 266 218 226 248 266 282 295 302 307 311 313 308 248 254 259 277 284 333 245 262 234 233 201 244 279 358 296 11 313 297 296 323 330 15 299 340 1 317 242 12 20 31 64 83 91 94 96 96
275 283 292 295 298 293 234 212 225 250 267 285 295 300 303 309 310 306 283 270 292 271 289 283 299 307 291 241 191 211 263 26 34 339 326 302 293 22 333 322 346 319 314 325 54 34 29 23 54 91 89 92 90 86
271 279 288 296 286 290 209 210 233 258 273 285 294 297 306 312 315 305 257 218 214 265 298 287 313 270 299 24 101 188 221 256 302 323 305 308 273 305 316 18 359 341 329 358 356 355 87 53 68 92 91 92 92 97
265 275 280 282 286 229 198 212 243 266 278 286 292 298 304 312 325 337 328 87 183 189 278 297 284 294 305 298 59 107 102 13 305 311 294 298 300 327 6 27 335 355 25 63 37 74 82 78 75 82 92 92 89 85
254 264 271 269 257 184 204 228 254 275 284 290 293 294 297 299 283 212 202 77 146 248 247 289 306 279 288 190 127 350 185 217 257 288 302 321 15 32 24 18 330 349 76 93 73 62 77 74 87 82 89 90 90 85
258 261 260 260 181 194 214 244 268 285 290 294 295 294 289 279 275 267 248 242 210 265 264 289 277 323 256 263 250 261 286 342 1 312 353 15 14 10 40 329 324 335 12 72 102 100 97 97 86 84 87 93 89 87
268 269 267 183 184 197 225 259 286 296 299 299 296 289 25 131 189 238 262 124 140 222 275 253 256 270 346 310 27 337 143 260 254 23 29 71 16 38 319 326 334 10 80 109 103 98 102 99 95 90 89 89 92 89
271 263 179 181 194 201 239 281 304 307 307 308 97 133 249 171 258 117 326 91 174 232 223 246 245 257 91 322 303 322 351 357 4 39 104 64 74 293 343 337 55 69 94 103 111 111 108 103 97 93 92 97 100 102
269 189 181 186 199 210 242 300 321 323 16 39 25 287 308 313 75 76 239 222 189 228 208 235 209 240 263 203 226 221 311 47 10 335 75 47 42 17 9 37 70 84 85 76 80 93 97 105 110 117 123 118 117 120
188 194 189 187 202 226 250 321 345 27 119 183 222 283 309 15 212 230 221 241 216 240 198 213 243 202 273 166 93 293 275 17 334 55 60 44 49 76 108 83 81 89 97 98 97 89 88 117 119 115 115 114 114 113
179 178 196 198 204 234 269 314 329 303 342 121 181 317 96 252 201 211 227 234 248 250 256 297 312 260 352 90 83 354 11 336 61 54 67 11 100 109 115 111 101 90 91 95 109 133 176 108 110 112 112 107 105 101
178 174 186 209 223 224 264 294 304 6 92 131 152 315 185 230 241 197 196 211 236 217 279 247 268 233 254 132 135 54 232 292 58 112 171 179 135 128 121 127 139 148 168 195 218 134 111 111 111 111 111 116 116 114
169 179 186 224 237 229 238 267 311 15 99 192 125 231 227 242 272 260 242 257 253 218 296 321 307 97 285 167 205 137 179 344 322 186 185 143 138 137 146 157 202 202 113 100 116 126 127 123 118 115 114 112 113 116
159 150 218 226 221 200 192 91 109 153 256 228 241 272 247 16 289 308 276 260 236 255 81 65 327 346 285 231 171 14 217 250 195 206 162 141 147 162 181 202 204 123 117 110 110 116 119 120 121 121 118 119 121 121
151 217 159 176 155 151 152 101 188 222 242 241 248 230 223 232 231 245 216 248 145 72 246 80 331 253 317 48 318 134 235 191 182 133 120 141 152 176 186 168 169 136 126 117 111 109 112 116 121 122 121 123 128 129
157 188 150 148 138 141 100 183 213 247 237 231 229 261 213 223 233 257 239 211 118 161 140 219 172 0 255 252 279 212 155 109 107 135 133 154 170 167 162 161 155 138 137 133 126 119 112 121 122 124 117 120 111 110
166 159 148 134 142 152 183 211 173 254 242 235 241 236 229 247 234 233 216 193 176 146 112 61 216 216 241 221 175 148 149 147 146 130 162 159 197 166 153 150 145 142 144 139 136 142 143 140 136 130 131 132 126 127
138 156 160 134 120 155 247 247 140 227 260 241 255 265 224 232 230 199 159 167 134 103 72 200 215 223 198 230 179 160 159 145 140 137 136 77 109 140 145 147 149 142 132 118 104 111 107 94 107 129 131 130 131 139
175 213 152 111 149 165 268 274 256 217 256 247 250 242 273 343 124 144 162 105 85 172 228 226 227 253 243 211 138 134 155 162 161 150 143 116 130 133 135 133 133 139 143 143 146 144 147 164 159 142 135 138 147 152
202 159 108 191 224 205 234 221 216 274 267 250 301 204 257 245 217 209 158 100 201 229 193 185 206 182 168 165 166 165 165 169 136 108 94 108 137 122 142 147 142 151 156 158 156 164 171 157 143 145 144 144 131 137
141 156 180 152 207 222 255 130 218 233 230 253 285 223 232 209 216 67 76 215 248 233 198 181 206 163 186 161 125 126 149 157 166 166 133 95 52 138 137 147 154 158 160 178 168 167 173 165 163 160 146 134 143 139
198 186 211 205 192 250 290 225 216 251 258 261 258 250 179 178 138 57 212 244 252 296 179 186 133 87 43 80 116 156 154 159 159 172 168 153 167 190 154 154 161 172 181 158 167 173 160 178 171 166 166 163 167 168
119 249 179 252 269 224 236 227 205 219 241 213 231 241 151 135 84 40 261 275 288 278 247 151 149 182 171 189 168 171 169 158 166 175 196 195 192 146 123 156 171 174 153 143 166 175 169 162 175 178 177 176 176 179
207 224 180 204 221 197 229 281 224 214 223 253 201 94 48 70 104 247 241 220 227 225 213 202 183 162 218 192 176 183 186 165 134 165 182 183 179 174 203 194 195 234 192 166 154 158 167 167 163 164 174 178 175 174
222 243 220 230 225 264 287 264 232 211 235 188 162 123 105 117 219 260 275 235 222 217 189 140 143 143 151 152 97 117 133 159 172 136 125 145 170 173 179 205 222 226 160 174 162 163 166 167 168 176 178 174 182 186
244 258 199 231 216 207 235 269 266 248 129 108 95 178 152 189 222 232 230 289 109 109 72 83 102 116 121 113 77 105 103 122 112 108 89 116 187 164 190 207 215 216 186 178 159 139 157 162 166 172 172 189 197 193
244 252 253 260 233 236 215 216 254 249 148 119 128 184 183 209 224 132 322 111 101 97 81 87 80 107 101 99 54 44 60 92 96 96 339 348 4 234 185 165 165 168 161 148 166 170 174 167 169 184 191 193 202 191
244 179 201 249 216 227 253 190 270 292 62 144 142 103 48 34 358 9 100 111 91 89 99 92 95 111 139 130 130 72 358 172 225 179 205 219 213 204 173 156 167 166 152 143 155 106 75 91 78 99 120 148 166 170
246 144 190 237 316 261 225 192 346 32 71 72 40 100 112 110 30 26 28 22 77 87 93 82 64 48 85 103 131 130 112 0 352 352 353 21 43 110 162 156 159 155 160 157 157 158 151 149 159 169 170 182 190 194
168 204 129 222 280 307 107 141 101 64 47 61 30 46 50 64 60 349 353 356 71 66 64 82 87 81 76 78 70 76 105 73 19 354 351 337 18 233 160 129 154 151 166 169 168 166 163 159 165 178 191 202 206 212
163 179 202 258 242 190 251 100 78 100 57 80 104 142 104 113 126 227 330 13 77 97 89 80 79 77 79 78 67 24 8 24 35 36 36 2 325 327 299 214 188 183 178 180 175 173 173 161 163 161 165 161 136 122